Wind_Speed
50 52 53 53 55 52 46 45 40 41 42 43 42 41 39 36 33 33 32 27 21 18 22 22 17 16 16 15 14 13 18 20 10 8 7 16 13 12 11 12 11 9 6 5 6
44 47 52 53 54 56 53 45 40 35 39 40 40 39 38 38 37 37 31 29 26 23 17 22 19 16 15 16 18 21 19 20 18 11 9 11 10 9 12 13 12 7 8 7 8
45 44 45 54 53 54 56 53 48 39 33 37 38 37 35 35 36 38 32 29 26 27 25 18 22 20 17 17 17 23 25 20 25 14 6 7 10 10 14 15 12 11 10 8 8
51 46 44 48 54 54 53 56 53 48 39 33 33 34 35 35 32 33 33 33 31 27 26 23 19 23 21 20 19 22 21 23 29 29 10 6 9 11 12 14 12 12 10 10 8
54 49 45 46 51 53 53 53 55 52 45 37 33 34 34 36 36 21 22 32 33 33 30 24 20 18 22 23 21 20 18 20 21 21 18 12 11 9 11 13 14 13 12 10 9
53 53 48 44 47 51 52 52 52 53 49 43 36 33 36 38 32 33 14 11 25 29 31 28 21 17 20 23 23 20 16 16 22 25 22 19 20 19 19 15 13 13 13 12 12
54 55 51 46 43 48 51 50 51 50 49 46 38 36 36 38 31 30 25 14 14 17 25 23 23 22 23 22 21 24 19 19 25 26 26 24 25 21 18 18 20 19 17 14 13
57 53 53 48 44 44 47 48 49 48 47 45 40 36 40 36 39 28 33 24 13 18 21 20 22 22 23 22 19 22 25 26 27 27 28 22 32 23 22 23 22 22 22 18 15
57 54 50 50 44 42 43 41 45 43 42 42 42 37 37 38 38 37 29 28 23 19 15 16 20 24 23 22 21 23 26 31 28 28 28 26 31 23 23 26 29 27 26 23 20
57 56 52 53 45 40 42 39 35 35 39 41 41 37 40 43 39 38 34 25 24 30 27 22 26 29 27 29 28 23 31 20 29 29 34 35 37 30 22 23 28 34 28 27 27
57 57 54 54 48 42 44 43 40 36 42 51 54 52 32 46 40 37 33 32 29 21 28 32 34 39 35 32 31 20 29 26 31 25 21 30 33 30 25 26 29 25 33 32 31
61 58 54 55 50 44 46 52 53 55 50 49 48 51 39 19 38 40 33 32 35 36 29 28 37 35 30 30 31 31 21 23 19 19 24 27 35 31 28 30 29 28 28 35 34
62 59 54 52 50 46 50 48 46 47 45 44 43 39 45 27 27 34 40 36 34 33 34 37 23 34 29 30 34 35 31 25 19 15 21 30 37 40 37 34 33 35 35 35 37
61 60 56 52 51 48 48 44 43 38 31 33 40 35 33 33 26 32 35 37 31 36 36 34 38 23 33 34 32 35 35 32 18 14 22 21 14 31 35 39 37 33 34 33 32
62 62 56 55 53 52 49 46 42 36 6 22 47 27 37 37 31 33 33 37 40 34 39 36 32 38 33 37 31 34 27 30 33 27 26 26 16 33 36 41 36 33 33 34 31
63 61 56 52 51 48 47 46 37 25 8 22 35 46 37 41 36 32 32 35 37 37 30 26 23 24 34 35 33 27 25 22 29 34 22 34 26 31 39 42 35 30 26 28 28
64 60 59 57 56 49 49 49 31 18 16 21 35 45 46 44 38 36 43 38 38 32 39 35 44 18 22 26 31 32 28 9 10 11 19 26 25 54 17 28 25 26 19 23 31
62 60 59 55 51 51 52 54 18 20 30 22 31 35 48 41 39 41 36 41 47 34 20 30 22 42 34 36 35 41 37 9 7 6 11 11 19 27 24 30 30 29 23 26 26
62 62 60 54 52 55 56 49 19 31 36 29 30 34 27 41 35 38 38 46 46 45 30 23 23 23 36 40 32 33 41 41 7 3 2 18 33 39 27 24 27 27 24 27 25
66 64 59 54 54 57 57 33 22 30 36 34 27 32 32 41 31 43 36 41 48 50 46 27 7 23 26 31 41 36 39 33 24 5 6 10 23 28 16 17 20 34 34 31 30
66 62 58 54 55 58 59 40 29 33 29 35 30 31 29 40 33 37 30 28 33 47 38 34 22 12 15 36 40 41 37 32 29 20 5 3 15 24 22 19 21 23 29 30 32
68 52 58 55 56 57 48 40 27 30 31 29 30 27 29 35 35 29 40 27 18 24 47 44 18 30 34 28 38 46 41 48 28 34 29 13 28 11 14 19 23 26 25 24 21
65 60 56 55 37 53 47 43 32 32 34 34 31 25 30 31 28 34 31 34 21 16 27 37 27 23 18 34 41 45 46 47 51 35 38 21 26 30 21 21 21 17 18 18 18
68 52 52 51 40 52 53 50 46 35 32 31 34 34 30 27 26 17 22 22 27 31 25 23 37 31 26 22 25 35 44 48 50 37 48 46 48 45 20 25 19 16 13 12 12
60 53 58 57 51 42 53 51 43 43 42 32 29 33 38 32 31 28 20 16 12 15 23 31 33 42 48 35 26 38 43 51 50 65 39 56 50 46 43 28 27 21 19 20 19
57 59 55 52 47 41 47 47 52 47 48 46 45 44 39 37 40 37 36 32 27 23 22 25 36 31 44 49 41 35 33 39 57 55 53 59 49 51 50 35 31 31 29 26 26
54 56 57 50 50 42 50 45 48 45 41 38 37 35 36 39 35 29 29 31 29 27 24 25 26 34 38 37 44 36 57 50 46 65 68 62 62 52 48 48 54 50 45 44 43
Wind_Direction
232 228 228 226 223 219 216 221 222 222 222 221 223 225 229 231 231 232 234 234 236 240 232 229 228 224 230 217 204 207 213 210 193 167 187 193 207 222 235 244 253 263 257 250 251
234 229 226 226 224 219 217 217 218 221 219 220 219 222 226 230 233 233 230 231 231 238 236 226 227 223 226 220 211 212 206 210 195 166 167 191 198 233 234 243 244 248 257 255 252
229 231 226 225 223 222 217 216 218 219 215 216 218 219 222 225 231 234 229 228 228 234 238 234 224 228 224 226 223 213 220 212 194 173 148 219 233 238 227 239 244 247 261 262 251
228 228 226 224 223 222 218 218 216 220 218 215 213 217 220 224 229 239 229 224 221 226 234 231 228 227 231 232 225 216 225 226 209 210 217 238 234 228 232 233 233 233 247 259 254
226 226 227 227 223 221 219 217 217 218 220 218 216 215 218 221 219 226 231 225 222 224 229 233 229 232 230 237 238 230 234 231 221 196 210 231 233 247 255 249 245 243 248 255 262
224 224 223 228 225 221 221 216 217 216 219 221 217 215 219 224 219 221 203 198 217 223 226 230 227 227 228 231 237 236 229 230 210 214 220 249 249 245 250 253 254 249 254 256 262
221 220 221 222 226 222 220 218 216 216 216 219 219 218 223 225 221 217 212 203 208 204 221 224 225 222 225 230 228 236 223 222 223 210 213 223 238 237 248 254 253 258 253 255 256
219 218 218 220 222 220 217 218 216 215 213 214 218 218 225 222 223 221 222 214 198 198 203 210 221 223 224 223 229 229 231 225 220 225 229 227 243 232 237 250 256 256 258 252 255
216 216 213 215 213 215 209 211 214 210 209 209 212 213 219 222 224 221 221 224 208 192 191 202 214 220 217 219 220 223 228 226 233 222 218 231 257 247 232 242 249 258 251 249 247
211 212 208 213 205 209 204 201 199 199 200 203 212 212 223 220 219 221 217 210 217 220 219 217 212 220 216 212 212 218 223 227 231 227 234 238 253 252 249 249 245 249 252 246 243
209 207 202 207 199 195 194 192 190 189 202 204 207 212 217 222 215 218 216 215 216 210 209 216 214 219 223 224 225 237 240 242 242 238 249 244 253 253 252 251 247 253 244 244 246
206 202 199 202 194 189 193 196 199 198 189 204 209 212 208 215 212 210 212 211 214 220 214 212 226 230 228 224 227 231 231 236 242 239 241 247 252 255 250 246 242 244 248 250 251
200 198 194 202 189 187 195 195 193 195 187 200 207 210 210 206 204 206 210 212 216 218 218 218 227 227 232 227 226 229 228 229 232 237 249 250 258 254 251 247 247 247 247 247 250
196 195 190 194 188 188 193 189 194 191 182 194 203 201 205 206 209 200 210 209 208 219 224 227 224 227 228 232 227 233 231 229 228 252 248 243 269 259 258 256 254 248 248 247 246
193 192 189 196 193 193 189 184 188 185 157 202 202 202 201 199 203 199 203 210 218 216 216 222 224 223 229 234 228 233 237 235 231 245 257 244 255 267 262 254 248 250 253 249 250
190 188 183 192 190 192 182 178 174 175 225 173 194 204 194 205 207 199 198 207 219 217 213 200 216 219 235 241 233 240 232 232 233 236 253 244 239 265 256 256 256 255 257 251 250
184 185 185 191 186 183 180 175 175 193 182 177 183 197 202 197 200 205 207 203 207 209 226 233 237 232 239 230 224 222 214 211 219 218 240 242 239 248 250 250 259 252 253 255 253
181 182 185 189 184 180 178 177 192 186 176 188 185 186 197 199 204 207 214 211 217 215 218 222 231 232 223 222 218 217 202 189 201 198 247 200 236 250 262 260 258 260 249 253 255
175 176 183 185 183 183 176 180 200 192 185 167 166 175 185 198 200 201 209 216 212 208 207 215 228 230 235 222 213 209 208 213 268 257 248 223 247 257 253 254 260 260 250 247 244
170 175 180 181 182 181 181 180 200 185 185 165 161 179 185 194 197 202 203 220 219 221 213 220 236 220 231 224 225 221 218 208 223 192 231 236 246 241 254 269 260 250 250 245 245
167 170 179 181 177 179 184 190 163 170 172 168 173 176 187 190 199 200 210 218 227 223 222 217 225 247 218 208 210 213 216 211 220 234 222 257 251 260 265 266 257 247 234 239 244
166 164 175 181 171 182 188 192 156 164 176 181 182 184 185 192 196 199 210 219 234 226 223 225 237 240 242 239 226 217 215 212 211 219 226 244 248 266 285 245 224 236 222 228 232
164 163 170 182 174 184 191 192 182 173 181 186 183 183 193 193 196 206 213 214 215 206 214 221 227 235 245 242 240 237 215 216 216 227 228 227 243 256 252 235 230 236 229 226 226
163 153 166 182 181 192 193 196 197 192 196 195 200 202 198 194 200 201 214 221 227 235 234 228 226 223 226 230 228 219 227 217 221 225 235 231 243 233 233 230 222 219 248 244 243
167 161 173 181 189 193 196 199 194 195 205 201 197 212 214 218 226 229 224 203 221 221 235 229 232 231 235 242 247 239 237 221 217 229 224 237 237 240 224 224 228 234 250 252 261
167 170 178 182 184 182 188 194 200 203 210 212 221 225 225 226 232 234 240 244 248 252 248 264 245 232 243 241 231 263 249 222 222 227 227 238 245 247 240 222 218 236 254 262 269
180 179 181 181 180 184 192 198 202 207 210 219 219 220 225 231 238 245 247 248 246 244 239 253 256 248 257 253 248 248 250 245 238 232 233 233 250 246 246 237 235 243 247 251 257
Height
3044 3051 3058 3065 3071 3079 3086 3092 3097 3102 3107 3113 3118 3124 3129 3132 3136 3140 3144 3150 3153 3154 3158 3160 3163 3166 3169 3171 3173 3176 3177 3179 3180 3181 3183 3184 3185 3185 3186 3185 3185 3186 3187 3188 3188
3035 3041 3048 3056 3064 3070 3078 3085 3092 3097 3101 3108 3112 3117 3123 3127 3131 3134 3142 3144 3149 3151 3154 3157 3161 3163 3166 3169 3171 3172 3172 3176 3180 3181 3182 3183 3183 3184 3184 3184 3185 3185 3186 3186 3186
3028 3033 3039 3047 3055 3062 3070 3078 3085 3091 3096 3101 3107 3112 3118 3122 3126 3128 3136 3140 3144 3147 3150 3154 3156 3160 3163 3166 3168 3169 3170 3172 3177 3179 3179 3181 3181 3181 3182 3182 3183 3184 3184 3184 3184
3020 3025 3031 3038 3045 3054 3061 3069 3079 3085 3091 3097 3101 3108 3113 3116 3122 3121 3128 3134 3139 3142 3144 3150 3153 3156 3159 3162 3164 3166 3167 3168 3173 3175 3176 3179 3180 3180 3180 3180 3181 3183 3183 3183 3183
3010 3017 3024 3030 3037 3045 3054 3062 3071 3078 3085 3092 3097 3102 3106 3109 3115 3118 3121 3128 3133 3137 3140 3145 3149 3153 3155 3158 3161 3161 3164 3166 3170 3172 3174 3177 3177 3178 3179 3179 3180 3181 3181 3181 3181
2999 3010 3017 3023 3029 3036 3046 3055 3063 3072 3080 3087 3092 3097 3101 3104 3111 3116 3120 3124 3128 3133 3136 3140 3146 3149 3151 3153 3157 3159 3161 3163 3165 3169 3171 3173 3173 3175 3176 3176 3177 3178 3178 3179 3180
2988 2998 3009 3017 3022 3029 3038 3048 3056 3066 3074 3081 3087 3093 3096 3100 3105 3111 3118 3122 3125 3129 3133 3138 3141 3144 3146 3148 3153 3156 3158 3160 3161 3165 3167 3170 3169 3169 3172 3173 3174 3175 3175 3176 3177
2979 2987 3000 3010 3016 3023 3030 3040 3049 3060 3069 3076 3083 3087 3089 3095 3100 3106 3113 3118 3122 3125 3129 3133 3136 3140 3143 3146 3149 3152 3154 3154 3157 3161 3164 3167 3160 3167 3170 3168 3169 3170 3171 3173 3173
2969 2978 2990 3001 3008 3017 3025 3033 3043 3054 3063 3071 3076 3081 3084 3090 3094 3102 3107 3113 3120 3123 3126 3129 3133 3136 3140 3143 3146 3147 3146 3146 3154 3156 3159 3159 3156 3161 3165 3164 3164 3165 3167 3168 3170
2958 2969 2982 2993 3001 3011 3020 3029 3038 3047 3055 3063 3069 3080 3075 3080 3089 3094 3102 3109 3114 3119 3123 3126 3128 3131 3133 3137 3135 3139 3142 3143 3147 3153 3154 3153 3149 3154 3159 3159 3160 3160 3160 3162 3164
2948 2960 2973 2984 2994 3004 3013 3020 3031 3040 3046 3048 3052 3061 3063 3074 3084 3088 3097 3104 3110 3113 3115 3119 3123 3118 3125 3132 3137 3139 3140 3142 3143 3149 3149 3148 3145 3149 3153 3153 3153 3154 3155 3156 3158
2937 2951 2964 2976 2986 2997 3006 3009 3019 3022 3033 3043 3051 3058 3063 3067 3076 3084 3093 3099 3102 3105 3112 3117 3111 3118 3126 3129 3132 3136 3137 3138 3141 3144 3145 3144 3139 3142 3144 3146 3147 3149 3150 3151 3152
2927 2942 2956 2969 2979 2989 2997 3007 3018 3024 3034 3041 3047 3052 3059 3067 3071 3079 3087 3092 3097 3103 3104 3107 3109 3115 3122 3124 3128 3131 3133 3138 3141 3141 3140 3141 3133 3132 3134 3138 3140 3141 3142 3144 3145
2917 2933 2948 2961 2973 2981 2992 3006 3015 3026 3035 3039 3042 3050 3056 3064 3071 3076 3082 3091 3092 3095 3101 3105 3109 3113 3116 3117 3124 3125 3130 3136 3139 3139 3136 3138 3125 3122 3126 3127 3130 3133 3135 3136 3139
2908 2925 2940 2952 2961 2970 2987 3001 3013 3024 3032 3034 3038 3044 3051 3058 3064 3070 3077 3083 3086 3091 3098 3094 3100 3105 3108 3109 3119 3120 3127 3131 3135 3135 3134 3132 3130 3110 3118 3118 3120 3124 3128 3129 3133
2900 2918 2934 2948 2960 2972 2987 3000 3011 3022 3019 3021 3025 3034 3044 3050 3059 3068 3071 3078 3085 3088 3092 3090 3097 3101 3101 3108 3114 3120 3124 3126 3129 3132 3126 3121 3125 3100 3107 3110 3114 3118 3120 3122 3125
2895 2914 2929 2940 2950 2969 2983 2995 3005 3006 3010 3014 3016 3023 3036 3042 3052 3058 3063 3068 3074 3081 3082 3087 3088 3093 3098 3103 3109 3112 3119 3121 3124 3123 3108 3113 3117 3091 3101 3104 3108 3110 3114 3115 3115
2891 2911 2925 2938 2954 2966 2977 2991 2993 2994 3000 3002 3010 3022 3029 3038 3046 3052 3060 3064 3069 3073 3077 3080 3084 3084 3089 3093 3096 3101 3110 3109 3111 3109 3102 3106 3097 3086 3093 3098 3101 3104 3107 3108 3106
2889 2908 2921 2934 2950 2961 2973 2983 2982 2986 2991 2998 3010 3019 3027 3033 3040 3049 3054 3059 3063 3065 3071 3074 3075 3077 3079 3088 3094 3097 3098 3101 3104 3102 3100 3095 3088 3088 3091 3093 3096 3096 3098 3099 3102
2882 2901 2918 2932 2943 2956 2968 2976 2980 2985 2990 2998 3005 3014 3019 3026 3036 3043 3050 3049 3052 3057 3066 3071 3071 3073 3078 3084 3087 3086 3094 3100 3101 3100 3099 3084 3080 3077 3083 3086 3087 3087 3091 3093 3094
2882 2901 2916 2929 2940 2952 2958 2972 2976 2983 2989 2995 3001 3008 3016 3023 3030 3035 3040 3045 3047 3054 3062 3067 3070 3072 3074 3070 3073 3080 3083 3086 3091 3090 3084 3084 3072 3074 3078 3081 3083 3083 3083 3085 3087
2877 2895 2912 2924 2935 2946 2956 2965 2972 2979 2988 2995 3003 3007 3014 3021 3026 3032 3034 3041 3043 3048 3051 3057 3064 3064 3063 3067 3069 3073 3074 3079 3082 3077 3076 3075 3065 3071 3074 3075 3076 3077 3078 3080 3081
2880 2896 2915 2922 2927 2938 2951 2962 2971 2977 2986 2994 3000 3007 3012 3017 3024 3027 3030 3037 3040 3042 3045 3050 3053 3058 3059 3063 3061 3059 3060 3065 3071 3075 3070 3072 3059 3068 3073 3072 3073 3074 3076 3077 3079
2874 2895 2910 2920 2930 2937 2945 2956 2965 2976 2983 2988 2996 3003 3009 3014 3019 3023 3028 3034 3038 3040 3046 3049 3047 3045 3044 3045 3050 3051 3053 3060 3067 3069 3059 3059 3055 3064 3069 3070 3072 3073 3074 3074 3076
2881 2891 2899 2912 2926 2933 2946 2955 2963 2971 2978 2985 2991 2998 3003 3010 3016 3019 3025 3029 3033 3036 3039 3042 3036 3039 3038 3043 3043 3045 3046 3051 3053 3048 3060 3046 3052 3056 3062 3066 3068 3069 3069 3070 3071
2884 2891 2903 2914 2925 2934 2945 2952 2959 2967 2975 2981 2989 2995 3001 3006 3010 3014 3020 3024 3028 3032 3035 3034 3032 3030 3030 3035 3036 3036 3041 3043 3045 3042 3051 3044 3043 3047 3058 3061 3061 3061 3062 3064 3066
2885 2893 2904 2913 2925 2935 2941 2950 2958 2967 2974 2981 2987 2992 2996 3000 3008 3014 3016 3018 3020 3024 3028 3028 3029 3029 3018 3027 3033 3029 3023 3028 3032 3034 3035 3035 3025 3041 3046 3049 3054 3057 3059 3061 3062